Location: Lac de la Montagne noire
(46.1952°N, 74.2701°W)
Time: 22:13:04
(UTC-04:00)

ISS - Pass Details

Date: 02 April 2019
Orbit: 408 x 410 km, 51.6° (Epoch: 20 April)

Event Time Altitude Azimuth Distance (km) Brightness Sun altitude
Rises 21:07:59 0° 297° (WNW) 2,339 1.8 -17.4°
Reaches altitude 10° 21:10:05 10° 300° (WNW) 1,475 0.3 -17.7°
Maximum altitude 21:13:23 69° 25° (NNE) 440 -3.8 -18.2°
Enters shadow 21:13:48 60° 75° (ENE) 474 -3.8 -18.3°
